Location: Unspecified
(0.0000°N, 0.0000°E)
Time: 00:06:04
(UTC+00:00)

Tiangong - Pass Details

Date: 25 September 2023
Orbit: 370 x 384 km, 41.5° (Epoch: 04 October)

Event Time Altitude Azimuth Distance (km) Brightness Sun altitude
Exits shadow 05:01:31 - 333° (NNW) 1,701 0.9 -12.6°
Reaches altitude 10° 05:02:25 10° 338° (NNW) 1,360 0.4 -12.4°
Maximum altitude 05:05:13 32° 44° (NE) 663 -0.5 -11.7°
Drops below altitude 10° 05:08:02 10° 110° (ESE) 1,374 1.9 -11.0°
Sets 05:10:13 0° 120° (ESE) 2,230 2.9 -10.4°
